When you browse on this site, cookies collect data to enhance your experience and personalize the content and advertising you see.
Visit our Privacy Policy to learn more. By continuing to use the site, you agree to this use of cookies and data.
  • En España
  • Lista de países
  • Para 7 días
  • Temperatura del agua
  • Mapa Satelital
  • El tiempo en el mapa
  • Informadores
  • user-avatar
    Iniciar sesión

    Tiempo cada hora Tirana

    Hoy, 17 Enero, Jueves

    Tiempo Temperatura Precipitaciones Viento Presión Humedad
    00:00 +2°C° 0 mm 3 mps 759 mmHg 65%
    01:00 +2°C° 0 mm 3 mps 759 mmHg 65%
    02:00 +1°C° 0 mm 4 mps 758 mmHg 65%
    03:00 +1°C° 0 mm 4 mps 758 mmHg 65%
    04:00 +1°C° 0 mm 4 mps 758 mmHg 64%
    05:00 +1°C° 0 mm 4 mps 758 mmHg 64%
    06:00 +1°C° 0 mm 4 mps 758 mmHg 64%
    07:00 +1°C° 0 mm 4 mps 758 mmHg 65%
    08:00 +4°C° 0 mm 4 mps 758 mmHg 61%
    09:00 +5°C° 0 mm 4 mps 758 mmHg 56%
    10:00 +7°C° 0 mm 4 mps 758 mmHg 52%
    11:00 +9°C° 0 mm 3 mps 757 mmHg 50%
    12:00 +10°C° 0 mm 3 mps 757 mmHg 47%
    13:00 +11°C° 0 mm 3 mps 757 mmHg 45%
    14:00 +12°C° 0 mm 2 mps 757 mmHg 48%
    15:00 +10°C° 0 mm 2 mps 756 mmHg 51%
    16:00 +9°C° 0 mm 2 mps 756 mmHg 55%
    17:00 +8°C° 0 mm 3 mps 756 mmHg 55%
    18:00 +7°C° 0 mm 3 mps 756 mmHg 56%
    19:00 +5°C° 0 mm 3 mps 756 mmHg 57%
    20:00 +5°C° 0 mm 4 mps 756 mmHg 55%
    21:00 +5°C° 0 mm 4 mps 756 mmHg 53%
    22:00 +4°C° 0 mm 4 mps 756 mmHg 51%
    23:00 +5°C° 0 mm 5 mps 756 mmHg 51%

    Mañana, 18 Enero, Viernes

    Tiempo Temperatura Precipitaciones Viento Presión Humedad
    00:00 +5°C° 0 mm 5 mps 756 mmHg 52%
    01:00 +5°C° 0 mm 5 mps 756 mmHg 52%
    02:00 +5°C° 0 mm 5 mps 755 mmHg 56%
    03:00 +5°C° 0 mm 5 mps 755 mmHg 59%
    04:00 +6°C° 0 mm 5 mps 755 mmHg 62%
    05:00 +6°C° 0 mm 5 mps 755 mmHg 65%
    06:00 +6°C° 0 mm 5 mps 754 mmHg 67%
    07:00 +6°C° 0 mm 5 mps 754 mmHg 70%
    08:00 +7°C° 0 mm 5 mps 754 mmHg 69%
    09:00 +8°C° 0 mm 5 mps 754 mmHg 68%
    10:00 +9°C° 0 mm 6 mps 754 mmHg 67%
    11:00 +9°C° 0.1 mm 6 mps 754 mmHg 69%
    12:00 +9°C° 0.1 mm 6 mps 753 mmHg 72%
    13:00 +8°C° 0.1 mm 7 mps 753 mmHg 74%
    14:00 +8°C° 0.2 mm 7 mps 753 mmHg 73%
    15:00 +9°C° 0.2 mm 6 mps 753 mmHg 73%
    16:00 +9°C° 0.2 mm 6 mps 753 mmHg 73%
    17:00 +8°C° 0.2 mm 6 mps 753 mmHg 74%
    18:00 +7°C° 0.2 mm 6 mps 753 mmHg 75%
    19:00 +5°C° 0.2 mm 6 mps 753 mmHg 76%
    20:00 +5°C° 0.3 mm 6 mps 753 mmHg 77%
    21:00 +5°C° 0.3 mm 6 mps 753 mmHg 77%
    22:00 +5°C° 0.3 mm 6 mps 753 mmHg 78%
    23:00 +5°C° 0.3 mm 6 mps 753 mmHg 79%

    Pasado mañana, 19 Enero, Sábado

    Tiempo Temperatura Precipitaciones Viento Presión Humedad
    00:00 +5°C° 0.3 mm 6 mps 753 mmHg 79%
    01:00 +5°C° 0.3 mm 6 mps 753 mmHg 79%
    02:00 +6°C° 0.1 mm 5 mps 753 mmHg 79%
    03:00 +6°C° 0.1 mm 5 mps 753 mmHg 79%
    04:00 +6°C° 0.1 mm 5 mps 753 mmHg 78%
    05:00 +6°C° 0 mm 5 mps 753 mmHg 78%
    06:00 +5°C° 0 mm 5 mps 753 mmHg 77%
    07:00 +5°C° 0 mm 5 mps 753 mmHg 77%
    08:00 +7°C° 0 mm 4 mps 753 mmHg 72%
    09:00 +10°C° 0 mm 4 mps 753 mmHg 67%
    10:00 +11°C° 0 mm 4 mps 753 mmHg 62%
    11:00 +12°C° 0 mm 4 mps 753 mmHg 59%
    12:00 +13°C° 0 mm 3 mps 753 mmHg 55%
    13:00 +14°C° 0 mm 3 mps 752 mmHg 52%
    14:00 +14°C° 0.2 mm 3 mps 752 mmHg 57%
    15:00 +13°C° 0.2 mm 3 mps 752 mmHg 61%
    16:00 +12°C° 0.2 mm 3 mps 752 mmHg 66%
    17:00 +11°C° 0.4 mm 3 mps 752 mmHg 69%
    18:00 +10°C° 0.4 mm 3 mps 752 mmHg 73%
    19:00 +9°C° 0.4 mm 3 mps 753 mmHg 76%
    20:00 +8°C° 0.2 mm 3 mps 753 mmHg 75%
    21:00 +8°C° 0.2 mm 3 mps 753 mmHg 74%
    22:00 +8°C° 0.2 mm 3 mps 753 mmHg 73%
    23:00 +7°C° 0.1 mm 4 mps 753 mmHg 73%

    20 Enero, Domingo

    Tiempo Temperatura Precipitaciones Viento Presión Humedad
    00:00 +7°C° 0.1 mm 4 mps 753 mmHg 72%
    01:00 +7°C° 0.1 mm 4 mps 753 mmHg 72%
    02:00 +7°C° 0.3 mm 4 mps 753 mmHg 73%
    03:00 +7°C° 0.3 mm 4 mps 752 mmHg 75%
    04:00 +7°C° 0.3 mm 5 mps 752 mmHg 76%
    05:00 +6°C° 0.5 mm 4 mps 752 mmHg 77%
    06:00 +6°C° 0.5 mm 4 mps 752 mmHg 78%
    07:00 +6°C° 0.5 mm 4 mps 753 mmHg 79%
    08:00 +7°C° 0.4 mm 4 mps 753 mmHg 76%
    09:00 +10°C° 0.4 mm 4 mps 753 mmHg 74%
    10:00 +11°C° 0.4 mm 3 mps 753 mmHg 71%
    11:00 +11°C° 0.4 mm 3 mps 753 mmHg 68%
    12:00 +12°C° 0.4 mm 3 mps 753 mmHg 65%
    13:00 +13°C° 0.4 mm 2 mps 753 mmHg 62%
    14:00 +13°C° 0.2 mm 2 mps 753 mmHg 65%
    15:00 +12°C° 0.2 mm 1 mps 753 mmHg 69%
    16:00 +12°C° 0.2 mm 1 mps 753 mmHg 73%
    17:00 +11°C° 0.2 mm 1 mps 753 mmHg 76%
    18:00 +10°C° 0.2 mm 1 mps 753 mmHg 80%
    19:00 +9°C° 0.2 mm 1 mps 754 mmHg 84%
    20:00 +8°C° 0.1 mm 2 mps 754 mmHg 84%
    21:00 +7°C° 0.1 mm 2 mps 754 mmHg 84%
    22:00 +7°C° 0.1 mm 3 mps 755 mmHg 84%
    23:00 +7°C° 0.1 mm 3 mps 755 mmHg 83%

    21 Enero, Lunes

    Tiempo Temperatura Precipitaciones Viento Presión Humedad
    00:00 +7°C° 0.1 mm 3 mps 754 mmHg 83%
    01:00 +5°C° 0.1 mm 4 mps 754 mmHg 82%
    02:00 +5°C° 0 mm 4 mps 754 mmHg 81%
    03:00 +5°C° 0 mm 4 mps 754 mmHg 79%
    04:00 +5°C° 0 mm 4 mps 754 mmHg 78%
    05:00 +5°C° 0 mm 4 mps 754 mmHg 76%
    06:00 +5°C° 0 mm 4 mps 754 mmHg 74%
    07:00 +5°C° 0 mm 4 mps 754 mmHg 72%
    08:00 +6°C° 0 mm 4 mps 754 mmHg 66%
    09:00 +8°C° 0 mm 4 mps 754 mmHg 61%
    10:00 +10°C° 0 mm 4 mps 754 mmHg 56%
    11:00 +12°C° 0 mm 4 mps 754 mmHg 52%
    12:00 +13°C° 0 mm 4 mps 753 mmHg 49%
    13:00 +14°C° 0 mm 4 mps 753 mmHg 45%
    14:00 +13°C° 0.3 mm 4 mps 752 mmHg 51%
    15:00 +12°C° 0.3 mm 5 mps 752 mmHg 58%
    16:00 +12°C° 0.3 mm 5 mps 752 mmHg 64%
    17:00 +10°C° 0.6 mm 5 mps 752 mmHg 67%
    18:00 +9°C° 0.6 mm 5 mps 752 mmHg 69%
    19:00 +8°C° 0.6 mm 5 mps 752 mmHg 72%
    20:00 +8°C° 1.3 mm 5 mps 752 mmHg 73%
    21:00 +7°C° 1.3 mm 5 mps 751 mmHg 75%
    22:00 +7°C° 1.3 mm 5 mps 751 mmHg 77%
    23:00 +7°C° 1.3 mm 6 mps 750 mmHg 77%

    22 Enero, Martes

    Tiempo Temperatura Precipitaciones Viento Presión Humedad
    00:00 +7°C° 1.3 mm 6 mps 750 mmHg 76%
    01:00 +6°C° 1.3 mm 7 mps 749 mmHg 76%
    02:00 +6°C° 2.3 mm 7 mps 749 mmHg 76%
    03:00 +6°C° 2.3 mm 7 mps 748 mmHg 76%
    04:00 +6°C° 2.3 mm 7 mps 748 mmHg 76%
    05:00 +6°C° 2.5 mm 7 mps 747 mmHg 76%
    06:00 +6°C° 2.5 mm 7 mps 747 mmHg 77%
    07:00 +6°C° 2.5 mm 7 mps 747 mmHg 77%
    08:00 +6°C° 0.5 mm 7 mps 747 mmHg 77%
    09:00 +6°C° 0.5 mm 7 mps 747 mmHg 77%
    10:00 +8°C° 0.5 mm 7 mps 747 mmHg 76%
    11:00 +9°C° 0.4 mm 7 mps 746 mmHg 73%
    12:00 +11°C° 0.4 mm 8 mps 746 mmHg 69%
    13:00 +12°C° 0.4 mm 9 mps 746 mmHg 65%
    14:00 +11°C° 0.9 mm 9 mps 746 mmHg 68%
    15:00 +11°C° 0.9 mm 9 mps 745 mmHg 70%
    16:00 +10°C° 0.9 mm 9 mps 745 mmHg 73%
    17:00 +9°C° 1.3 mm 7 mps 745 mmHg 77%
    18:00 +9°C° 1.3 mm 6 mps 745 mmHg 81%
    19:00 +8°C° 1.3 mm 4 mps 746 mmHg 85%
    20:00 +9°C° 1.5 mm 3 mps 746 mmHg 86%
    21:00 +8°C° 1.5 mm 2 mps 746 mmHg 87%
    22:00 +9°C° 1.5 mm 1 mps 746 mmHg 88%
    23:00 +8°C° 1.1 mm 2 mps 746 mmHg 87%
    Mostrar más